Regional Weather Roundup
Issued by NWS Charleston, SC

Current Version | Previous Version | Graphics & Text | Print | Product List | Glossary On
Versions: 1 2 3 4 5 6 7 8 9 10 11 12 13 14 15 16 17 18 19 20 21 22 23 24 25 26 27 28 29 30 31 32 33 34 35 36 37 38 39 40 41 42 43 44 45 46 47 48 49 50
000
ASUS42 KCHS 040312
RWRCHS

REGIONAL WEATHER ROUNDUP
NATIONAL WEATHER SERVICE CHARLESTON SC
1000 PM EST SAT DEC 03 2016

NOTE: "FAIR" INDICATES FEW OR NO CLOUDS BELOW 12,000 FEET WITH NO
SIGNIFICANT WEATHER AND/OR OBSTRUCTIONS TO VISIBILITY.

NOT ALL STATIONS ARE QUALITY CONTROLLED. USE DATA WITH CAUTION...
ESPECIALLY DEWPOINT OBSERVATIONS.

SCZ027-030-031-034>040-042>050-040400-
...SOUTHEAST SOUTH CAROLINA...

CITY           SKY/WX    TMP DP  RH WIND       PRES   REMARKS
N CHARLESTON   CLOUDY    51  38  60 NE5       30.28R
WATERFRONT PRK   N/A     53  42  66 NE8       30.25F
MOUNT PLEASANT NOT AVBL
JOHNS ISLAND   CLOUDY    54  41  62 CALM      30.28S
PINOPOLIS        N/A     54  37  54 VRB3      30.19R
MONCKS CORNER  CLOUDY    48  41  76 CALM      30.27S
SUMMERVILLE    CLOUDY    50  43  76 CALM      30.29R
BEAUFORT MCAS  CLOUDY    53  40  61 NE5       30.29R
BEAUFORT ARPT  CLOUDY    54  41  62 NE9       30.28R
HILTON HEAD IS MOCLDY    55  41  58 N8        30.27S
WALTERBORO     CLOUDY    52  41  66 CALM      30.30R
ALLENDALE      CLOUDY    52  41  66 CALM      30.26F

...SOUTHERN MIDLANDS AND PEE DEE...

CITY           SKY/WX    TMP DP  RH WIND       PRES   REMARKS
GEORGETOWN     NOT AVBL
KINGSTREE      FAIR      45  41  87 CALM      30.28S
ORANGEBURG     LGT RAIN  48  42  80 CALM      30.28R
BARNWELL       NOT AVBL
AIKEN          LGT RAIN  46  41  81 SE3       30.29S
MANNING        NOT AVBL
COLUMBIA       LGT RAIN  50  43  77 CALM      30.27R
SUMTER         LGT RAIN  49  42  76 CALM      30.25S
FLORENCE       LGT RAIN  48  42  80 E3        30.28S
MYRTLE BEACH   CLEAR     48  37  66 CALM      30.31R
N MYRTLE BEACH PTCLDY    46  40  79 CALM      30.28R

$$

GAZ063-065-086>088-099>101-113>116-118-119-134>141-150-040400-
...SOUTHEAST GEORGIA...

CITY           SKY/WX    TMP DP  RH WIND       PRES   REMARKS
SAVANNAH ARPT  CLOUDY    54  42  64 NE7       30.26S
HUNTER AAF     CLOUDY    55  45  68 NE6       30.23S
FORT STEWART   CLOUDY    55  42  63 CALM      30.23S
STATESBORO     CLOUDY    55  43  64 E3        30.25F
SYLVANIA       CLOUDY   N/A N/A N/A E5        30.26F
CLAXTON        CLOUDY    55  45  70 NE8       30.23F

...CSRA...CENTRAL AND FAR SOUTHEAST GEORGIA...

CITY           SKY/WX    TMP DP  RH WIND       PRES   REMARKS
THOMSON        CLOUDY    49  49 100 CALM      30.29S
AUGUSTA-BUSH   LGT RAIN  50  46  86 CALM      30.25F
AUGUSTA-DANIEL LGT RAIN  52  39  61 E6        30.25F
SWAINSBORO     CLOUDY    54  37  54 E3        30.26R
VIDALIA        CLOUDY    55  45  67 NE3       30.24S
EASTMAN        CLOUDY    58  22  25 E5        30.24F
HAZLEHURST     CLOUDY    58  43  57 CALM      30.23R
ALMA           CLOUDY    56  47  71 E5        30.23R
WAYCROSS       CLOUDY    59  52  78 E6        30.23S
JESUP          CLOUDY    55  52  88 E6        30.24S
BAXLEY         CLOUDY    57  50  77 E5        30.23S
BRUNSWICK      MOCLDY    59  54  82 NE7       30.24R
SAINT SIMONS   CLOUDY    60  50  69 NE13      30.22R

$$

SCZ027-028-034-036>038-045-046-048>050-GAZ119-141-040400-
...LAKE AND SUPPLEMENTAL COASTAL OBSERVATIONS...

STATION/POSITION TIME  TEMP    WIND        PRES    WAVE   SWELL
                       AIR SEA DIR/SP/G            HT/PER HT/PER/DIR
                 (UTC) (F)     (DEG/KT/KT) (MB)    (FT/S) (FT/S/D)
WINYAH BAY       0145   48      10/  3     1025.0
LAKE MURRAY      0220   51        CALM     1024.4
ACE BASIN NERRS  0145   52      10/  1     1024.0
FORT PULASKI     0248   56 62   50/  9/ 10 1024.8R
SAPELO ISLAND    0200   59      40/  8     1023.0

$$

ANZ835-935-AMZ111-154-330-350-352-354-370-450-454-472-040400-
...C-MAN AND BUOY OBSERVATIONS...

STATION/POSITION TIME  TEMP    WIND        PRES    WAVE   SWELL
                       AIR SEA DIR/SP/G            HT/PER HT/PER/DIR
                 (UTC) (F)     (DEG/KT/KT) (MB)    (FT/S) (FT/S/D)
BUOY 41004       0250   58 75   10/ 12/ 16 1024.2R   3/ 5   2/ 40/ 6
BUOY 41008       0250   62 65   60/ 17/ 19 1023.2R   4/ 6   2/120/ 8
FOLLY BEACH CMAN 0300   54      20/  8/  9 1025.9R
CAPERS NEARSHORE NOT AVBL
FRIPP NEARSHORE  0208   57 63   40/ 10/ 14 1024.4R


STATION/POSITION TIME  TEMP    WIND        PRES    WAVE   SWELL
                       AIR SEA DIR/SP/G            HT/PER HT/PER/DIR
                 (UTC) (F)     (DEG/KT/KT) (MB)    (FT/S) (FT/S/D)
5E ST. MARYS GA  0230      66                N/A     4/ 5
FRYING PAN BUOY  0250   56 73  350/  8/ 12 1024.7R   3/ 8   3/ 70/ 8
BUOY 41025       0250   58 75  350/ 14/ 17 1023.9R   5/ 8   5/ 50/ 8
CAPE LOOKOUT NC  0300   50     340/  9/ 10 1024.5R
BUOY 41002       0250   63 73   10/ 10/ 14 1021.8F   6/ 7   5/ 10/ 7
BUOY 41010       NOT AVBL
ST AUGUSTINE FL  0300   69 67   90/ 10/ 11 1022.1R


$$




USA.gov is the U.S. government's official web portal to all federal, state and local government web resources and services.